Time,TemperatureF,DewpointF,PressureIn,WindDirection,WindDirectionDegrees,WindSpeedMPH,WindSpeedGustMPH,Humidity,HourlyPrecipIn,Conditions,Clouds,dailyrainin,SoftwareType,DateUTC
2013-04-07 00:33:00,58.0,-99.9,-100.00,SSW,192,0.0,3.0,-999,-99.99,,,-99.99,,2013-04-07 06:33:00,
2013-04-07 00:43:00,58.0,-99.9,-100.00,SSW,192,0.0,3.0,-999,-99.99,,,-99.99,,2013-04-07 06:43:00,
2013-04-07 00:53:00,56.0,-99.9,-100.00,ESE,108,3.0,5.0,-999,-99.99,,,-99.99,,2013-04-07 06:53:00,
2013-04-07 01:02:00,56.0,-99.9,-100.00,ESE,108,3.0,5.0,-999,-99.99,,,-99.99,,2013-04-07 07:02:00,
2013-04-07 01:12:00,56.0,-99.9,-100.00,ESE,108,3.0,5.0,-999,-99.99,,,-99.99,,2013-04-07 07:12:00,
2013-04-07 03:34:00,61.0,-99.9,-100.00,East,92,2.0,4.0,-999,-99.99,,,-99.99,,2013-04-07 09:34:00,
2013-04-07 03:47:00,61.0,-99.9,-100.00,East,92,2.0,4.0,-999,-99.99,,,-99.99,,2013-04-07 09:47:00,
2013-04-07 03:54:00,61.0,-99.9,-100.00,East,92,2.0,4.0,-999,-99.99,,,-99.99,,2013-04-07 09:54:00,
2013-04-07 04:05:00,62.0,-99.9,-100.00,SW,224,3.0,5.0,-999,-99.99,,,-99.99,,2013-04-07 10:05:00,
2013-04-07 04:14:00,62.0,-99.9,-100.00,SW,224,3.0,5.0,-999,-99.99,,,-99.99,,2013-04-07 10:14:00,
2013-04-07 04:40:00,52.0,-99.9,-100.00,ESE,114,3.0,5.0,-999,-99.99,,,-99.99,,2013-04-07 10:40:00,
2013-04-07 05:23:00,52.0,-99.9,-100.00,ESE,114,3.0,5.0,-999,-99.99,,,-99.99,,2013-04-07 11:23:00,
2013-04-07 05:33:00,52.0,-99.9,-100.00,ESE,114,3.0,5.0,-999,-99.99,,,-99.99,,2013-04-07 11:33:00,
2013-04-07 08:24:00,54.0,-99.9,-100.00,South,175,2.0,5.0,-999,-99.99,,,-99.99,,2013-04-07 14:24:00,
2013-04-07 08:34:00,55.0,-99.9,-100.00,SSW,204,1.0,2.0,-999,-99.99,,,-99.99,,2013-04-07 14:34:00,
2013-04-07 08:45:00,55.0,-99.9,-100.00,SSW,204,1.0,2.0,-999,-99.99,,,-99.99,,2013-04-07 14:45:00,
2013-04-07 08:55:00,58.0,-99.9,-100.00,East,85,0.0,3.0,-999,-99.99,,,-99.99,,2013-04-07 14:55:00,
2013-04-07 09:04:00,58.0,-99.9,-100.00,East,85,0.0,3.0,-999,-99.99,,,-99.99,,2013-04-07 15:04:00,
2013-04-07 09:05:00,65.0,-99.9,-100.00,SW,225,2.0,4.0,-999,-99.99,,,-99.99,,2013-04-07 15:05:00,
2013-04-07 09:55:00,65.0,-99.9,-100.00,SW,225,2.0,4.0,-999,-99.99,,,-99.99,,2013-04-07 15:55:00,
2013-04-07 11:40:00,73.0,-99.9,-100.00,SW,215,5.0,7.0,-999,-99.99,,,-99.99,,2013-04-07 17:40:00,
2013-04-07 12:03:00,73.0,-99.9,-100.00,SW,222,2.0,8.0,-999,-99.99,,,-99.99,,2013-04-07 18:03:00,
2013-04-07 12:14:00,73.0,-99.9,-100.00,SW,222,2.0,8.0,-999,-99.99,,,-99.99,,2013-04-07 18:14:00,
2013-04-07 12:24:00,73.0,-99.9,-100.00,SW,215,5.0,7.0,-999,-99.99,,,-99.99,,2013-04-07 18:24:00,
2013-04-07 12:34:00,73.0,-99.9,-100.00,SW,215,5.0,7.0,-999,-99.99,,,-99.99,,2013-04-07 18:34:00,
2013-04-07 13:30:00,77.0,-99.9,-100.00,South,191,3.0,10.0,-999,-99.99,,,-99.99,,2013-04-07 19:30:00,
2013-04-07 14:23:00,77.0,-99.9,-100.00,South,191,3.0,10.0,-999,-99.99,,,-99.99,,2013-04-07 20:23:00,
2013-04-07 14:55:00,78.0,-99.9,-100.00,South,179,8.0,8.0,-999,-99.99,,,-99.99,,2013-04-07 20:55:00,
2013-04-07 15:04:00,78.0,-99.9,-100.00,South,179,8.0,8.0,-999,-99.99,,,-99.99,,2013-04-07 21:04:00,
2013-04-07 16:30:00,80.0,-99.9,-100.00,SW,219,7.0,8.0,-999,-99.99,,,-99.99,,2013-04-07 22:30:00,
2013-04-07 17:00:00,80.0,-99.9,-100.00,SW,232,7.0,8.0,-999,-99.99,,,-99.99,,2013-04-07 23:00:00,
2013-04-07 17:23:00,80.0,-99.9,-100.00,SW,219,7.0,8.0,-999,-99.99,,,-99.99,,2013-04-07 23:23:00,
2013-04-07 17:53:00,80.0,-99.9,-100.00,SW,232,7.0,8.0,-999,-99.99,,,-99.99,,2013-04-07 23:53:00,
2013-04-07 18:50:00,78.0,-99.9,-100.00,SSE,168,1.0,8.0,-999,-99.99,,,-99.99,,2013-04-08 00:50:00,
2013-04-07 19:23:00,78.0,-99.9,-100.00,WSW,245,9.0,9.0,-999,-99.99,,,-99.99,,2013-04-08 01:23:00,
2013-04-07 19:34:00,78.0,-99.9,-100.00,SSE,168,1.0,8.0,-999,-99.99,,,-99.99,,2013-04-08 01:34:00,
2013-04-07 19:45:00,78.0,-99.9,-100.00,SSE,168,1.0,8.0,-999,-99.99,,,-99.99,,2013-04-08 01:45:00,
2013-04-07 20:00:00,74.0,-99.9,-100.00,WSW,239,3.0,5.0,-999,-99.99,,,-99.99,,2013-04-08 02:00:00,
2013-04-07 22:04:00,66.0,-99.9,-100.00,SSE,167,0.0,3.0,-999,-99.99,,,-99.99,,2013-04-08 04:04:00,
2013-04-07 22:13:00,66.0,-99.9,-100.00,SSE,167,0.0,3.0,-999,-99.99,,,-99.99,,2013-04-08 04:13:00,
2013-04-07 22:23:00,66.0,-99.9,-100.00,South,189,1.0,3.0,-999,-99.99,,,-99.99,,2013-04-08 04:23:00,
2013-04-07 22:35:00,66.0,-99.9,-100.00,SSE,155,2.0,4.0,-999,-99.99,,,-99.99,,2013-04-08 04:35:00,
2013-04-07 22:45:00,66.0,-99.9,-100.00,SSE,155,2.0,4.0,-999,-99.99,,,-99.99,,2013-04-08 04:45:00,
2013-04-07 22:53:00,66.0,-99.9,-100.00,SSE,155,2.0,4.0,-999,-99.99,,,-99.99,,2013-04-08 04:53:00,